OBJECT C, 63293

Orbit data source: Space-Track

You're viewing an Uncataloged Satellite

Recently launched and/or uncataloged satellites may have evolving metadata. Metadata may include but not limited to: Owner, Maufacturer, Bus, Motor, and Mission.

OBJECT C, 63293 is a satellite owned by Yunyao yuhang (CN) in SSO that was launched on Mon, 17 Mar 2025 UTC via a GUSHENXING 1 launch vehicle from the Jiuquan Satellite Launch Center, China (JSC). Unknown objects in Earth's orbit typically refer to objects detected orbiting the Earth but have not yet been identified or cataloged. These objects could be anything from previously untracked satellites, spent rocket stages, debris from satellite collisions, or even natural meteoroids temporarily captured by Earth's gravity.

Loading next visibility...
Identifier
63293, 2025-055C
Orbit
SSO
Last TLE update
9 hours ago
Origin
Flag of CNYYAO (CN / PRC)
Manufacturer
Changguang WJ
Mission
Operational Commercial Meteo Radio Occ.
Bus & Motor
YY-1, Unknown motor
Mass
~50 kg wet, ~50 kg dry
Launch date (UTC)
2025-03-17 (2 months ago)
Launch vehicle
GUSHENXING 1
Launch site
Jiuquan Satellite Launch Center, China (JSC)
Object type
Unknown
Shape & HBR
Box + 1 Pan, 5 m
Radar Cross Section
5.339 m², Medium (>0.1 m² and < 1m²)

Expand to show TLE details & history

TLE from 9 hours ago
0 OBJECT C
1 63293U 25055C   25128.91759824  .00010216  00000-0  61128-3 0  9994
2 63293  97.6061 263.9604 0014588 112.8742 247.4030 15.11141068  7909
Epoch: 2025-05-08T22:01Z
Definitive object data (Epoch: 2025-05-08T22:01:20.487Z)
Latitude
-0.00001°
Longitude
66.64383°
Altitude
539.679 km
Speed
7.59 km/s
True Right ascension
17h 35m 50s
True Declination
0° 00' 00"
Sunlit
Object was in full shadow at TLE epoch
Visualization TLE readout
Latitude
42.58617°
Longitude
-105.99097°
Altitude
529.915 km
Speed
7.607 km/s
Apparent Right ascension
04h 26m 20s
Apparent Declination
3° 40' 55"
Sunlit
Object is in daylight
Visualization observer readout
Local Sidereal Time
14:43:09
Azimuth
325.243° NNW
Elevation
-40.386°
Doppler factor
1
Orbital elements
Apogee altitude
539.782 km
Perigee altitude
519.628 km
Semi-major axis
6,907.842 km
Eccentricity
0.0014588
Inclination
97.6061°
RAAN
263.9604°
Arg. of periapsis
112.8742°
True anomaly
247.24878°
Mean anomaly
247.403°
Eccentric anomaly
247.32588°
Mean motion
3.78033 °/min
BSTAR
0.00061128
Orbital period
95.23 mins
Loading maneuver chart data...
Loading SW <> Apogee altitude chart data...
Loading historical data...
Loading historical data...
Loading historical data...
Loading historical data...
Loading historical data...
Loading historical data...
Loading historical data...

OBJECT C Visibility forecast

Observer location: undefined°, undefined°

Span
Click to sort rows by Start time (UTC) header in descending order
Start Az.
Max El. time (UTC)
Max El. Az.
Max El.
End time (UTC)
End Az.
5 mins2025-05-09 09:17:18.436Z191.877° SSW2025-05-09 09:19:18.436Z260.828° W38.995°2025-05-09 09:22:18.436Z335.306° NNW
5 mins2025-05-09 22:26:18.436Z334.588° NNW2025-05-09 22:28:18.436Z279.508° WNW27.814°2025-05-09 22:31:18.436Z225.331° WSW
|